7 * 24
多渠道服务支持
INTELSAT 4-F4是国际通信卫星组织(ITSO)运营的第四代国际通信卫星,于1972年1月23日发射升空,是该系列中的第四颗卫星。该卫星由休斯空间与通信公司基于HS-312平台研制,发射质量约1414千克,设计寿命7年,配备12路C频段转发器。作为早期地球同步轨道通信卫星,它主要承担跨洋洲际通信、广播电视传输任务,推动了全球卫星通信网络的早期建设,在国际通信发展进程中具有标志性意义。
(ITSO)
| 数据来源 | 国际轨道数据 |
| 星历时间: | 2026-09-11T04:56:39+0800 14小时前 查看轨道信息 |
| 半长轴: | 42288.077km |
| 偏心率: | 0.0001267 |
| 轨道倾角: | 6.550° |
| 近地点辐角 | 184.011° |
| 升交点赤经 | 293.710° |
| 平近点角 | 206.998° |
| 近地点: | 35904.582km |
| 远地点: | 35915.298km |
| 周期: | 1442.403分钟 |
| 每日圈数: | 0.998334 |